GW0293 Weather Reports


time (UTC)temp
C
wind
direction
speed
KPH
gust
KPH
rain 1hr
cm
rain 24hr
cm
rain mn
cm
humidity
%
barometer
mb
20260508141540 14 0 0.0 0.0 0.00 1.22 0.00 63 1002.4
20260508140038 14 0 0.0 0.0 0.00 1.22 0.00 60 1002.4
20260508134540 13 0 0.0 0.0 0.00 1.30 0.00 62 1002.3
20260508133037 12 0 0.0 0.0 0.00 1.30 0.00 75 1002.3
20260508131544 10 0 0.0 0.0 0.00 1.30 0.00 84 1002.4
20260508130058 10 0 0.0 0.0 0.00 1.30 0.00 83 1002.1
20260508124549 10 0 0.0 0.0 0.00 1.30 0.00 83 1002.3
20260508123045 11 0 0.0 0.0 0.00 1.30 0.00 79 1002.5
20260508121541 11 0 0.0 0.0 0.00 1.30 0.00 81 1002.6
20260508120047 10 0 0.0 0.0 0.00 1.30 0.00 81 1002.5
20260508114545 10 0 0.0 0.0 0.00 1.30 0.00 83 1002.7
20260508113036 10 0 0.0 0.0 0.00 1.30 0.00 86 1002.7
20260508111536 9 0 0.0 0.0 0.00 1.30 0.00 88 1002.8
20260508110042 7 0 0.0 0.0 0.00 1.30 0.00 90 1002.8
20260508104542 7 0 0.0 0.0 0.00 1.30 0.00 91 1002.6
20260508103041 6 0 0.0 0.0 0.00 1.30 0.00 92 1002.6
20260508101546 6 0 0.0 0.0 0.00 1.30 0.00 91 1002.5
20260508100037 6 0 0.0 0.0 0.00 1.30 0.00 90 1002.2
20260508094544 6 0 0.0 0.0 0.00 1.30 0.00 91 1002.2
20260508093037 6 0 0.0 0.0 0.00 1.30 0.00 92 1002.1
20260508091554 6 0 0.0 0.0 0.00 1.30 0.00 92 1001.8
20260508090053 6 0 0.0 0.0 0.00 1.30 0.00 91 1001.9
20260508084537 6 0 0.0 0.0 0.00 1.63 0.00 91 1001.8
20260508083036 6 0 0.0 0.0 0.00 1.63 0.00 90 1001.8
20260508081544 6 0 0.0 0.0 0.00 1.63 0.00 91 1001.6
20260508080043 6 0 0.0 0.0 0.00 1.63 0.00 91 1001.5
20260508074537 6 0 0.0 0.0 0.00 1.93 0.00 92 1001.4
20260508073043 6 0 0.0 0.0 0.00 1.93 0.00 92 1001.6
20260508071555 6 0 0.0 0.0 0.00 1.93 0.00 93 1001.8
20260508070053 6 0 0.0 0.0 0.00 1.93 0.00 93 1001.9
20260508064537 6 0 0.0 0.0 0.00 2.06 0.00 93 1001.9
20260508063036 6 0 0.0 0.0 0.00 2.06 0.00 93 1001.9
20260508061546 6 0 0.0 0.0 0.00 2.06 0.00 93 1001.7
20260508060044 6 0 0.0 0.0 0.00 2.06 0.00 93 1001.9
20260508054542 6 0 0.0 0.0 0.00 2.06 0.00 93 1001.9
20260508053035 6 0 0.0 0.0 0.00 2.06 0.00 92 1002.1
20260508051540 6 0 0.0 0.0 0.00 2.06 0.00 91 1002.3
20260508050043 7 0 0.0 0.0 0.00 2.06 0.00 90 1002.3
20260508044540 7 0 0.0 0.0 0.00 2.06 0.00 90 1002.2
20260508043036 7 0 0.0 0.0 0.00 2.06 0.00 90 1002.4
20260508041546 7 0 0.0 0.0 0.00 2.06 0.00 91 1002.7
20260508040045 7 0 0.0 0.0 0.00 2.06 0.00 91 1002.8
20260508034540 8 0 0.0 0.0 0.00 2.06 0.00 90 1002.9
20260508033053 8 0 0.0 0.0 0.00 2.06 0.00 90 1002.6
20260508031543 8 0 0.0 0.0 0.00 2.06 0.00 89 1002.4
20260508030036 9 0 0.0 0.0 0.00 2.06 0.00 90 1002.8
20260508024541 9 0 0.0 0.0 0.00 2.06 2.06 91 1002.8
20260508023041 9 0 0.0 0.0 0.00 2.06 2.06 92 1002.8
20260508021537 9 0 0.0 0.0 0.00 2.06 2.06 94 1002.9
20260508020045 8 0 0.0 0.0 0.00 2.06 2.06 95 1003.2
20260508014536 8 0 0.0 0.0 0.00 2.06 2.06 95 1003.2
20260508013042 9 0 0.0 0.0 0.00 2.06 2.06 95 1003.1
20260508011543 9 0 0.0 0.0 0.00 2.06 2.06 95 1003.1
20260508010037 9 0 0.0 0.0 0.00 2.06 2.06 95 1002.9
20260508004537 10 0 0.0 0.0 0.00 2.06 2.06 95 1002.6
20260508003036 10 0 0.0 0.0 0.00 2.06 2.06 95 1002.5
20260508001550 10 0 0.0 0.0 0.00 2.06 2.06 94 1002.3
20260508000041 10 0 0.0 0.0 0.00 2.06 2.06 94 1001.9
20260507234536 11 0 0.0 0.0 0.00 2.06 2.06 93 1001.7
20260507233036 11 0 0.0 0.0 0.00 2.06 2.06 91 1001.9
20260507231543 12 0 0.0 0.0 0.00 2.06 2.06 89 1001.9
20260507230046 12 0 0.0 0.0 0.00 2.06 2.06 86 1001.7
20260507224538 12 0 0.0 0.0 0.00 2.06 2.06 84 1001.8
20260507223036 13 0 0.0 0.0 0.00 2.06 2.06 84 1001.6
20260507221536 13 0 0.0 0.0 0.00 2.06 2.06 87 1001.7
20260507220036 13 0 0.0 0.0 0.00 2.06 2.06 93 1001.7
20260507214539 12 0 0.0 0.0 0.00 2.06 2.06 98 1001.8
20260507213053 11 0 0.0 0.0 0.00 2.06 2.06 97 1001.6
20260507211546 11 0 0.0 0.0 0.00 2.06 2.06 97 1001.5
20260507210040 11 0 0.0 0.0 0.00 2.06 2.06 97 1001.4
20260507204534 12 0 0.0 0.0 0.00 2.06 2.06 98 1001.4
20260507203042 11 0 0.0 0.0 0.00 2.06 2.06 98 1001.4
20260507201547 11 0 0.0 0.0 0.00 2.06 2.06 98 1001.4
20260507200042 11 0 0.0 0.0 0.00 2.06 2.06 98 1001.4
20260507194544 11 0 0.0 0.0 0.00 2.06 2.06 98 1001.2
20260507193044 11 0 0.0 0.0 0.00 2.06 2.06 98 1001.4
20260507191544 11 0 0.0 0.0 0.00 2.06 2.06 98 1001.5
20260507190042 11 0 0.0 0.0 0.00 2.06 2.06 98 1001.5
20260507184535 10 0 0.0 0.0 0.00 2.06 2.06 98 1001.7
20260507183045 10 0 0.0 0.0 0.00 2.06 2.06 98 1001.7
20260507181543 10 0 0.0 0.0 0.00 2.06 2.06 98 1002.0
20260507180050 10 0 0.0 0.0 0.05 2.06 2.06 98 1002.0
20260507174538 9 0 0.0 0.0 0.05 2.06 2.06 98 1002.1
20260507173048 8 0 0.0 0.0 0.13 2.06 2.06 98 1001.6
20260507171544 8 0 0.0 0.0 0.18 2.06 2.06 98 1001.3
20260507170051 8 0 0.0 0.0 0.15 2.01 2.01 97 1001.9
20260507164542 9 0 0.0 0.0 0.18 2.01 2.01 98 1001.8
20260507163044 8 0 0.0 0.0 0.18 1.93 1.93 98 1002.3
20260507161550 8 0 0.0 0.0 0.20 1.88 1.88 97 1002.5
20260507160037 8 0 0.0 0.0 0.28 1.85 1.85 97 1002.7
20260507154536 8 0 0.0 0.0 0.33 1.83 1.83 97 1002.7
20260507153040 8 0 0.0 0.0 0.53 1.75 1.75 97 1003.3
20260507151535 8 0 0.0 0.0 0.61 1.68 1.68 96 1003.5
20260507150036 8 0 0.0 0.0 0.74 1.57 1.57 97 1003.5
20260507144545 10 0 0.0 0.0 0.69 1.47 1.47 97 1004.0
20260507143057 10 0 0.0 0.0 0.41 1.19 1.19 97 1004.8